Time,TemperatureF,DewpointF,PressureIn,WindDirection,WindDirectionDegrees,WindSpeedMPH,WindSpeedGustMPH,Humidity,HourlyPrecipIn,Conditions,Clouds,dailyrainin,SoftwareType,DateUTC
2013-03-19 12:24:00,29.1,23.4,29.88,South,180,1.0,0.0,79,99.99,,CLR,-99.99,VWS V14.01,2013-03-19 16:24:00,
2013-03-19 12:25:00,29.1,23.4,29.88,South,180,1.0,0.0,79,0.00,,CLR,-99.99,VWS V14.01,2013-03-19 16:25:00,
2013-03-19 12:30:00,29.1,23.4,29.88,South,180,1.0,0.0,79,0.00,,CLR,-99.99,VWS V14.01,2013-03-19 16:30:00,
2013-03-19 12:35:00,29.4,23.7,29.88,South,180,1.0,0.0,79,0.00,,CLR,-99.99,VWS V14.01,2013-03-19 16:35:00,
2013-03-19 12:40:00,29.8,24.1,29.87,SSE,158,1.0,0.0,79,0.00,,CLR,-99.99,VWS V14.01,2013-03-19 16:40:00,
2013-03-19 12:42:00,30.0,24.3,29.87,SSE,158,1.0,0.0,79,0.00,,CLR,-99.99,VWS V14.01,2013-03-19 16:42:00,
2013-03-19 12:48:00,30.2,24.2,29.87,SSE,158,1.0,0.0,78,0.00,,CLR,-99.99,VWS V14.01,2013-03-19 16:48:00,
2013-03-19 12:53:00,30.5,24.8,29.87,SSE,158,1.0,0.0,79,0.00,,CLR,-99.99,VWS V14.01,2013-03-19 16:53:00,
2013-03-19 12:58:00,30.7,25.0,29.87,SSE,158,1.0,0.0,79,0.00,,CLR,-99.99,VWS V14.01,2013-03-19 16:58:00,
2013-03-19 13:03:00,31.1,25.0,29.87,SE,135,1.0,0.0,78,0.00,,CLR,-99.99,VWS V14.01,2013-03-19 17:03:00,
2013-03-19 13:08:00,30.9,24.9,29.87,South,180,1.0,0.0,78,0.00,,CLR,-99.99,VWS V14.01,2013-03-19 17:08:00,
2013-03-19 13:13:00,30.7,24.7,29.87,South,180,1.0,0.0,78,0.00,,CLR,-99.99,VWS V14.01,2013-03-19 17:13:00,
2013-03-19 13:18:00,30.7,25.0,29.87,SSE,158,1.0,0.0,79,0.00,,CLR,-99.99,VWS V14.01,2013-03-19 17:18:00,
2013-03-19 13:24:00,30.3,24.9,29.87,SSW,202,1.0,0.0,80,0.00,,CLR,-99.99,VWS V14.01,2013-03-19 17:24:00,
2013-03-19 13:29:00,30.3,25.2,29.86,SSW,202,1.0,0.0,81,0.00,,CLR,-99.99,VWS V14.01,2013-03-19 17:29:00,
2013-03-19 13:34:00,30.3,25.2,29.86,South,180,1.0,0.0,81,0.00,,CLR,-99.99,VWS V14.01,2013-03-19 17:34:00,
2013-03-19 13:40:00,30.3,25.5,29.86,SE,135,1.0,0.0,82,0.00,,CLR,-99.99,VWS V14.01,2013-03-19 17:40:00,
2013-03-19 13:45:00,30.3,25.5,29.85,SE,135,1.0,0.0,82,0.00,,CLR,-99.99,VWS V14.01,2013-03-19 17:45:00,
2013-03-19 13:50:00,30.3,25.5,29.85,SE,135,1.0,0.0,82,0.00,,CLR,-99.99,VWS V14.01,2013-03-19 17:50:00,
2013-03-19 13:55:00,30.2,25.1,29.85,SE,135,1.0,0.0,81,0.00,,CLR,-99.99,VWS V14.01,2013-03-19 17:55:00,
2013-03-19 14:00:00,29.8,24.7,29.85,ESE,112,1.0,0.0,81,0.00,,CLR,-99.99,VWS V14.01,2013-03-19 18:00:00,
2013-03-19 14:05:00,29.6,24.2,29.84,ESE,112,1.0,0.0,80,0.00,,CLR,-99.99,VWS V14.01,2013-03-19 18:05:00,
2013-03-19 14:10:00,29.6,24.5,29.84,SSE,158,1.0,0.0,81,0.00,,CLR,-99.99,VWS V14.01,2013-03-19 18:10:00,
2013-03-19 14:16:00,29.3,23.9,29.83,SSE,158,1.0,0.0,80,0.00,,CLR,-99.99,VWS V14.01,2013-03-19 18:16:00,
2013-03-19 14:21:00,29.4,24.0,29.83,SE,135,1.0,0.0,80,0.00,,CLR,-99.99,VWS V14.01,2013-03-19 18:21:00,
2013-03-19 14:26:00,29.4,24.0,29.83,South,180,1.0,0.0,80,0.00,,CLR,-99.99,VWS V14.01,2013-03-19 18:26:00,
2013-03-19 14:32:00,29.4,24.0,29.82,South,180,1.0,0.0,80,0.00,,CLR,-99.99,VWS V14.01,2013-03-19 18:32:00,
2013-03-19 14:37:00,29.8,24.4,29.82,South,180,1.0,0.0,80,0.00,,CLR,-99.99,VWS V14.01,2013-03-19 18:37:00,
2013-03-19 14:42:00,29.6,24.2,29.81,SSE,158,1.0,0.0,80,0.00,,CLR,-99.99,VWS V14.01,2013-03-19 18:42:00,
2013-03-19 14:47:00,29.8,24.4,29.81,SSE,158,1.0,0.0,80,0.00,,CLR,-99.99,VWS V14.01,2013-03-19 18:47:00,
2013-03-19 14:52:00,29.8,24.4,29.80,East,90,1.0,0.0,80,0.00,,CLR,-99.99,VWS V14.01,2013-03-19 18:52:00,
2013-03-19 14:58:00,29.6,24.2,29.80,SE,135,1.0,0.0,80,0.00,,CLR,-99.99,VWS V14.01,2013-03-19 18:58:00,
2013-03-19 15:03:00,29.8,24.4,29.80,ESE,112,1.0,0.0,80,0.00,,CLR,-99.99,VWS V14.01,2013-03-19 19:03:00,
2013-03-19 15:08:00,29.8,24.4,29.80,ESE,112,1.0,0.0,80,0.00,,CLR,-99.99,VWS V14.01,2013-03-19 19:08:00,
2013-03-19 15:13:00,30.2,24.8,29.80,ESE,112,1.0,0.0,80,0.00,,CLR,-99.99,VWS V14.01,2013-03-19 19:13:00,
2013-03-19 15:18:00,30.5,24.8,29.80,ESE,112,1.0,0.0,79,0.00,,CLR,-99.99,VWS V14.01,2013-03-19 19:18:00,
2013-03-19 15:23:00,30.7,25.0,29.80,ESE,112,1.0,0.0,79,0.00,,CLR,-99.99,VWS V14.01,2013-03-19 19:23:00,
2013-03-19 15:29:00,30.7,24.7,29.80,ESE,112,1.0,0.0,78,0.00,,CLR,-99.99,VWS V14.01,2013-03-19 19:29:00,
2013-03-19 15:34:00,30.7,24.7,29.80,ESE,112,1.0,0.0,78,0.00,,CLR,-99.99,VWS V14.01,2013-03-19 19:34:00,
2013-03-19 15:39:00,30.7,24.7,29.79,ESE,112,1.0,0.0,78,0.00,,CLR,-99.99,VWS V14.01,2013-03-19 19:39:00,
2013-03-19 15:45:00,30.3,24.3,29.79,ESE,112,1.0,0.0,78,0.00,,CLR,-99.99,VWS V14.01,2013-03-19 19:45:00,
2013-03-19 15:50:00,30.5,24.5,29.79,ESE,112,1.0,0.0,78,0.00,,CLR,-99.99,VWS V14.01,2013-03-19 19:50:00,
2013-03-19 15:55:00,30.2,24.2,29.79,ESE,112,1.0,0.0,78,0.00,,CLR,-99.99,VWS V14.01,2013-03-19 19:55:00,
2013-03-19 16:00:00,30.3,24.3,29.79,ESE,112,1.0,0.0,78,0.00,,CLR,-99.99,VWS V14.01,2013-03-19 20:00:00,
2013-03-19 16:06:00,29.8,23.8,29.78,ESE,112,1.0,0.0,78,0.00,,CLR,-99.99,VWS V14.01,2013-03-19 20:06:00,
2013-03-19 16:11:00,29.4,23.4,29.78,SE,135,1.0,0.0,78,0.00,,CLR,-99.99,VWS V14.01,2013-03-19 20:11:00,
2013-03-19 16:16:00,29.3,23.6,29.78,ESE,112,1.0,0.0,79,0.00,,CLR,-99.99,VWS V14.01,2013-03-19 20:16:00,
2013-03-19 16:21:00,29.4,23.7,29.78,ESE,112,1.0,0.0,79,0.00,,CLR,-99.99,VWS V14.01,2013-03-19 20:21:00,
2013-03-19 16:27:00,29.4,23.4,29.77,East,90,1.0,0.0,78,0.00,,CLR,-99.99,VWS V14.01,2013-03-19 20:27:00,
2013-03-19 16:33:00,28.5,22.8,29.77,ENE,68,1.0,0.0,79,0.00,,CLR,-99.99,VWS V14.01,2013-03-19 20:33:00,
2013-03-19 16:38:00,28.5,23.1,29.77,ENE,68,1.0,0.0,80,0.00,,CLR,-99.99,VWS V14.01,2013-03-19 20:38:00,
2013-03-19 16:43:00,28.0,22.6,29.77,ENE,68,1.0,0.0,80,0.00,,CLR,-99.99,VWS V14.01,2013-03-19 20:43:00,
2013-03-19 16:49:00,28.0,22.6,29.77,ENE,68,1.0,0.0,80,0.00,,CLR,-99.99,VWS V14.01,2013-03-19 20:49:00,
2013-03-19 16:54:00,27.6,22.0,29.77,ENE,68,1.0,0.0,79,0.00,,CLR,-99.99,VWS V14.01,2013-03-19 20:54:00,
2013-03-19 16:59:00,27.3,21.7,29.76,ENE,68,1.0,0.0,79,0.00,,CLR,-99.99,VWS V14.01,2013-03-19 20:59:00,
2013-03-19 17:04:00,26.9,21.6,29.76,ESE,112,1.0,0.0,80,0.00,,CLR,-99.99,VWS V14.01,2013-03-19 21:04:00,
2013-03-19 17:09:00,26.9,21.6,29.77,ENE,68,1.0,0.0,80,0.00,,CLR,-99.99,VWS V14.01,2013-03-19 21:09:00,
2013-03-19 17:14:00,26.7,21.4,29.76,ENE,68,1.0,0.0,80,0.00,,CLR,-99.99,VWS V14.01,2013-03-19 21:14:00,
2013-03-19 17:19:00,27.1,22.1,29.76,ENE,68,1.0,0.0,81,0.00,,CLR,-99.99,VWS V14.01,2013-03-19 21:19:00,
2013-03-19 17:30:00,28.8,23.1,29.77,East,90,1.0,0.0,79,99.99,,CLR,-99.99,VWS V14.01,2013-03-19 21:30:00,
2013-03-19 17:35:00,26.6,21.3,29.77,ESE,112,1.0,0.0,80,0.00,,CLR,-99.99,VWS V14.01,2013-03-19 21:35:00,
2013-03-19 17:40:00,26.6,21.3,29.76,ESE,112,1.0,0.0,80,0.00,,CLR,-99.99,VWS V14.01,2013-03-19 21:40:00,
2013-03-19 17:45:00,26.4,21.1,29.76,NE,45,1.0,0.0,80,0.00,,CLR,-99.99,VWS V14.01,2013-03-19 21:45:00,
2013-03-19 17:50:00,26.4,21.1,29.77,NE,45,1.0,0.0,80,0.00,,CLR,-99.99,VWS V14.01,2013-03-19 21:50:00,
2013-03-19 17:55:00,26.4,21.4,29.77,ENE,68,1.0,0.0,81,0.00,,CLR,-99.99,VWS V14.01,2013-03-19 21:55:00,
2013-03-19 18:00:00,26.2,20.9,29.77,SE,135,1.0,0.0,80,0.00,,CLR,-99.99,VWS V14.01,2013-03-19 22:00:00,
2013-03-19 18:05:00,26.2,20.9,29.77,ESE,112,1.0,0.0,80,0.00,,CLR,-99.99,VWS V14.01,2013-03-19 22:05:00,
2013-03-19 18:11:00,25.8,20.8,29.77,ESE,112,1.0,0.0,81,0.00,,CLR,-99.99,VWS V14.01,2013-03-19 22:11:00,
2013-03-19 18:16:00,25.7,20.7,29.77,ESE,112,1.0,0.0,81,0.00,,CLR,-99.99,VWS V14.01,2013-03-19 22:16:00,
2013-03-19 18:22:00,25.5,20.5,29.77,East,90,1.0,0.0,81,0.00,,CLR,-99.99,VWS V14.01,2013-03-19 22:22:00,
2013-03-19 18:28:00,25.5,20.5,29.76,ENE,68,1.0,0.0,81,0.00,,CLR,-99.99,VWS V14.01,2013-03-19 22:28:00,
2013-03-19 18:33:00,25.5,20.5,29.76,ENE,68,1.0,0.0,81,0.00,,CLR,-99.99,VWS V14.01,2013-03-19 22:33:00,
2013-03-19 18:38:00,25.5,20.5,29.77,ENE,68,1.0,0.0,81,0.00,,CLR,-99.99,VWS V14.01,2013-03-19 22:38:00,
2013-03-19 18:44:00,25.1,20.1,29.76,ENE,68,1.0,0.0,81,0.00,,CLR,-99.99,VWS V14.01,2013-03-19 22:44:00,
2013-03-19 18:49:00,25.1,20.1,29.77,ENE,68,1.0,0.0,81,0.00,,CLR,-99.99,VWS V14.01,2013-03-19 22:49:00,
2013-03-19 18:54:00,24.8,20.1,29.77,ESE,112,1.0,0.0,82,0.00,,CLR,-99.99,VWS V14.01,2013-03-19 22:54:00,
2013-03-19 19:35:00,24.4,20.0,29.77,ESE,112,1.0,0.0,83,0.00,,CLR,-99.99,VWS V14.01,2013-03-19 23:35:00,
2013-03-19 19:40:00,24.0,19.6,29.77,ESE,112,1.0,0.0,83,0.00,,CLR,-99.99,VWS V14.01,2013-03-19 23:40:00,
2013-03-19 19:45:00,24.0,19.6,29.76,ESE,112,1.0,0.0,83,0.00,,CLR,-99.99,VWS V14.01,2013-03-19 23:45:00,
2013-03-19 19:50:00,24.0,19.6,29.76,ESE,112,1.0,0.0,83,0.00,,CLR,-99.99,VWS V14.01,2013-03-19 23:50:00,
2013-03-19 19:55:00,24.0,19.6,29.76,SE,135,1.0,0.0,83,0.00,,CLR,-99.99,VWS V14.01,2013-03-19 23:55:00,
2013-03-19 20:00:00,23.9,19.5,29.77,SE,135,1.0,0.0,83,0.00,,CLR,-99.99,VWS V14.01,2013-03-20 00:00:00,
2013-03-19 20:06:00,23.7,19.3,29.77,SE,135,1.0,0.0,83,0.00,,CLR,-99.99,VWS V14.01,2013-03-20 00:06:00,
2013-03-19 20:11:00,23.5,19.4,29.77,ESE,112,1.0,0.0,84,0.00,,CLR,-99.99,VWS V14.01,2013-03-20 00:11:00,
2013-03-19 20:16:00,23.3,19.2,29.76,ESE,112,1.0,0.0,84,0.00,,CLR,-99.99,VWS V14.01,2013-03-20 00:16:00,
2013-03-19 20:22:00,23.3,19.2,29.76,ESE,112,1.0,0.0,84,0.00,,CLR,-99.99,VWS V14.01,2013-03-20 00:22:00,
2013-03-19 20:28:00,23.1,19.0,29.76,ESE,112,1.0,0.0,84,0.00,,CLR,-99.99,VWS V14.01,2013-03-20 00:28:00,
2013-03-19 20:34:00,23.1,19.3,29.77,ESE,112,1.0,0.0,85,0.00,,CLR,-99.99,VWS V14.01,2013-03-20 00:34:00,
2013-03-19 20:39:00,23.3,19.5,29.77,ESE,112,1.0,0.0,85,0.00,,CLR,-99.99,VWS V14.01,2013-03-20 00:39:00,
2013-03-19 20:45:00,23.1,19.3,29.77,ESE,112,1.0,0.0,85,0.00,,CLR,-99.99,VWS V14.01,2013-03-20 00:45:00,
2013-03-19 20:50:00,23.0,19.2,29.77,ESE,112,1.0,0.0,85,0.00,,CLR,-99.99,VWS V14.01,2013-03-20 00:50:00,
2013-03-19 20:55:00,22.8,19.0,29.76,ESE,112,1.0,0.0,85,0.00,,CLR,-99.99,VWS V14.01,2013-03-20 00:55:00,
2013-03-19 21:00:00,22.8,19.0,29.77,ESE,112,1.0,0.0,85,0.00,,CLR,-99.99,VWS V14.01,2013-03-20 01:00:00,
2013-03-19 21:06:00,22.8,19.0,29.77,ESE,112,1.0,0.0,85,0.00,,CLR,-99.99,VWS V14.01,2013-03-20 01:06:00,
2013-03-19 21:11:00,22.8,19.0,29.76,ESE,112,1.0,0.0,85,0.00,,CLR,-99.99,VWS V14.01,2013-03-20 01:11:00,
2013-03-19 21:16:00,22.8,19.0,29.77,ESE,112,1.0,0.0,85,0.00,,CLR,-99.99,VWS V14.01,2013-03-20 01:16:00,
2013-03-19 21:22:00,23.0,19.2,29.77,ESE,112,1.0,0.0,85,0.00,,CLR,-99.99,VWS V14.01,2013-03-20 01:22:00,
2013-03-19 21:27:00,23.1,19.3,29.77,ESE,112,1.0,0.0,85,0.00,,CLR,-99.99,VWS V14.01,2013-03-20 01:27:00,
2013-03-19 21:32:00,23.1,19.3,29.77,ESE,112,1.0,0.0,85,0.00,,CLR,-99.99,VWS V14.01,2013-03-20 01:32:00,
2013-03-19 21:38:00,23.3,19.5,29.77,ESE,112,1.0,0.0,85,0.00,,CLR,-99.99,VWS V14.01,2013-03-20 01:38:00,
2013-03-19 21:43:00,23.3,19.5,29.76,ESE,112,1.0,0.0,85,0.00,,CLR,-99.99,VWS V14.01,2013-03-20 01:43:00,
2013-03-19 21:48:00,23.5,19.7,29.76,ESE,112,1.0,0.0,85,0.00,,CLR,-99.99,VWS V14.01,2013-03-20 01:48:00,
2013-03-19 21:54:00,23.5,19.7,29.76,ESE,112,1.0,0.0,85,0.00,,CLR,-99.99,VWS V14.01,2013-03-20 01:54:00,
2013-03-19 21:59:00,23.5,19.7,29.76,ESE,112,1.0,0.0,85,0.00,,CLR,-99.99,VWS V14.01,2013-03-20 01:59:00,
2013-03-19 22:05:00,23.5,19.7,29.76,ESE,112,1.0,0.0,85,0.00,,CLR,-99.99,VWS V14.01,2013-03-20 02:05:00,
2013-03-19 22:10:00,23.5,19.4,29.76,ESE,112,1.0,0.0,84,0.00,,CLR,-99.99,VWS V14.01,2013-03-20 02:10:00,
2013-03-19 22:15:00,23.5,19.4,29.76,ESE,112,1.0,0.0,84,0.00,,CLR,-99.99,VWS V14.01,2013-03-20 02:15:00,
2013-03-19 22:20:00,23.5,19.4,29.76,ESE,112,1.0,0.0,84,0.00,,CLR,-99.99,VWS V14.01,2013-03-20 02:20:00,
2013-03-19 22:25:00,23.3,19.2,29.76,ESE,112,1.0,0.0,84,0.00,,CLR,-99.99,VWS V14.01,2013-03-20 02:25:00,
2013-03-19 22:30:00,23.1,19.0,29.76,ESE,112,1.0,0.0,84,0.00,,CLR,-99.99,VWS V14.01,2013-03-20 02:30:00,
2013-03-19 22:35:00,22.8,18.7,29.76,ESE,112,1.0,0.0,84,0.00,,CLR,-99.99,VWS V14.01,2013-03-20 02:35:00,
2013-03-19 22:40:00,22.8,19.0,29.76,ESE,112,1.0,0.0,85,0.00,,CLR,-99.99,VWS V14.01,2013-03-20 02:40:00,
2013-03-19 22:45:00,22.8,19.0,29.76,ESE,112,1.0,0.0,85,0.00,,CLR,-99.99,VWS V14.01,2013-03-20 02:45:00,
2013-03-19 22:50:00,23.0,19.2,29.76,ESE,112,1.0,0.0,85,0.00,,CLR,-99.99,VWS V14.01,2013-03-20 02:50:00,
2013-03-19 22:55:00,23.1,19.3,29.76,ESE,112,1.0,0.0,85,0.00,,CLR,-99.99,VWS V14.01,2013-03-20 02:55:00,
2013-03-19 23:00:00,23.1,19.3,29.76,ESE,112,1.0,0.0,85,0.00,,CLR,-99.99,VWS V14.01,2013-03-20 03:00:00,
2013-03-19 23:05:00,23.1,19.3,29.76,ESE,112,1.0,0.0,85,0.00,,CLR,-99.99,VWS V14.01,2013-03-20 03:05:00,
2013-03-19 23:10:00,23.0,19.2,29.75,ESE,112,1.0,0.0,85,0.00,,CLR,-99.99,VWS V14.01,2013-03-20 03:10:00,
2013-03-19 23:15:00,23.1,19.0,29.76,ESE,112,1.0,0.0,84,0.00,,CLR,-99.99,VWS V14.01,2013-03-20 03:15:00,
2013-03-19 23:20:00,23.1,19.0,29.75,ESE,112,1.0,0.0,84,0.00,,CLR,-99.99,VWS V14.01,2013-03-20 03:20:00,
2013-03-19 23:26:00,23.1,19.0,29.75,ESE,112,1.0,0.0,84,0.00,,CLR,-99.99,VWS V14.01,2013-03-20 03:26:00,
2013-03-19 23:31:00,23.1,19.0,29.75,ESE,112,1.0,0.0,84,0.00,,CLR,-99.99,VWS V14.01,2013-03-20 03:31:00,
2013-03-19 23:37:00,23.0,18.9,29.75,ESE,112,1.0,0.0,84,0.00,,CLR,-99.99,VWS V14.01,2013-03-20 03:37:00,
2013-03-19 23:42:00,23.0,18.9,29.75,ESE,112,1.0,0.0,84,0.00,,CLR,-99.99,VWS V14.01,2013-03-20 03:42:00,
2013-03-19 23:47:00,23.0,18.9,29.75,ESE,112,1.0,0.0,84,0.00,,CLR,-99.99,VWS V14.01,2013-03-20 03:47:00,
2013-03-19 23:53:00,23.0,18.9,29.74,ESE,112,1.0,0.0,84,0.00,,CLR,-99.99,VWS V14.01,2013-03-20 03:53:00,
2013-03-19 23:58:00,22.8,18.4,29.74,ESE,112,1.0,0.0,83,0.00,,CLR,-99.99,VWS V14.01,2013-03-20 03:58:00,